When you browse on this site, cookies collect data to enhance your experience and personalize the content and advertising you see.
Visit our Privacy Policy to learn more. By continuing to use the site, you agree to this use of cookies and data.
  • In Portugal
  • List of Countries
  • For 7 days
  • Water Temperature
  • Satellite Maps
  • Weather Map
  • Weather Widgets
  • user-avatar
    Login

    Hourly Weather Asadabad

    Today, 23 May, Thursday

    Time Temperature Precipitation Wind Pressure Humidity
    00:00 +19°C° 1.1 mm 3 mps 657 mmHg 65%
    01:00 +19°C° 1.1 mm 3 mps 656 mmHg 64%
    02:00 +19°C° 1.1 mm 3 mps 656 mmHg 64%
    03:00 +18°C° 2.4 mm 3 mps 656 mmHg 68%
    04:00 +18°C° 2.4 mm 3 mps 656 mmHg 71%
    05:00 +17°C° 2.4 mm 3 mps 655 mmHg 75%
    06:00 +16°C° 4.2 mm 3 mps 655 mmHg 75%
    07:00 +15°C° 4.2 mm 4 mps 655 mmHg 75%
    08:00 +15°C° 4.2 mm 4 mps 656 mmHg 75%
    09:00 +17°C° 0.8 mm 4 mps 656 mmHg 68%
    10:00 +19°C° 0.8 mm 4 mps 657 mmHg 61%
    11:00 +20°C° 0.8 mm 4 mps 657 mmHg 54%
    12:00 +21°C° 0.2 mm 3 mps 657 mmHg 52%
    13:00 +22°C° 0.2 mm 3 mps 657 mmHg 50%
    14:00 +24°C° 0.2 mm 2 mps 657 mmHg 48%
    15:00 +24°C° 0.2 mm 2 mps 657 mmHg 47%
    16:00 +25°C° 0.2 mm 2 mps 657 mmHg 47%
    17:00 +25°C° 0.2 mm 2 mps 657 mmHg 46%
    18:00 +24°C° 0.2 mm 2 mps 657 mmHg 50%
    19:00 +23°C° 0.2 mm 2 mps 657 mmHg 53%
    20:00 +23°C° 0.2 mm 2 mps 657 mmHg 56%
    21:00 +21°C° 0.1 mm 2 mps 657 mmHg 57%
    22:00 +21°C° 0.1 mm 2 mps 657 mmHg 58%
    23:00 +20°C° 0.1 mm 2 mps 657 mmHg 59%

    Tomorrow, 24 May, Friday

    Time Temperature Precipitation Wind Pressure Humidity
    00:00 +20°C° 0.4 mm 2 mps 657 mmHg 60%
    01:00 +19°C° 0.4 mm 2 mps 657 mmHg 62%
    02:00 +19°C° 0.4 mm 2 mps 656 mmHg 64%
    03:00 +19°C° 0.3 mm 2 mps 656 mmHg 64%
    04:00 +18°C° 0.3 mm 2 mps 656 mmHg 65%
    05:00 +18°C° 0.3 mm 2 mps 656 mmHg 65%
    06:00 +19°C° 0.1 mm 2 mps 657 mmHg 60%
    07:00 +20°C° 0.1 mm 2 mps 657 mmHg 55%
    08:00 +21°C° 0.1 mm 2 mps 658 mmHg 51%
    09:00 +23°C° 0.2 mm 2 mps 658 mmHg 48%
    10:00 +24°C° 0.2 mm 2 mps 658 mmHg 45%
    11:00 +25°C° 0.2 mm 2 mps 658 mmHg 42%
    12:00 +26°C° 0.4 mm 2 mps 658 mmHg 41%
    13:00 +26°C° 0.4 mm 2 mps 658 mmHg 40%
    14:00 +27°C° 0.4 mm 2 mps 658 mmHg 39%
    15:00 +27°C° 0.3 mm 2 mps 658 mmHg 39%
    16:00 +27°C° 0.3 mm 1 mps 658 mmHg 38%
    17:00 +27°C° 0.3 mm 1 mps 658 mmHg 38%
    18:00 +26°C° 0.3 mm 1 mps 658 mmHg 42%
    19:00 +25°C° 0.3 mm 1 mps 658 mmHg 47%
    20:00 +24°C° 0.3 mm 1 mps 658 mmHg 51%
    21:00 +23°C° 0.1 mm 2 mps 658 mmHg 51%
    22:00 +21°C° 0.1 mm 2 mps 658 mmHg 50%
    23:00 +21°C° 0.1 mm 3 mps 658 mmHg 50%

    Day after tomorrow, 25 May, Saturday

    Time Temperature Precipitation Wind Pressure Humidity
    00:00 +20°C° 0 mm 3 mps 658 mmHg 48%
    01:00 +20°C° 0 mm 3 mps 658 mmHg 46%
    02:00 +19°C° 0 mm 3 mps 658 mmHg 44%
    03:00 +19°C° 0 mm 3 mps 657 mmHg 42%
    04:00 +18°C° 0 mm 3 mps 657 mmHg 40%
    05:00 +18°C° 0 mm 3 mps 657 mmHg 38%
    06:00 +20°C° 0 mm 2 mps 657 mmHg 34%
    07:00 +23°C° 0 mm 2 mps 658 mmHg 30%
    08:00 +25°C° 0 mm 1 mps 658 mmHg 26%
    09:00 +26°C° 0 mm 1 mps 659 mmHg 24%
    10:00 +27°C° 0 mm 1 mps 659 mmHg 22%
    11:00 +29°C° 0 mm 2 mps 659 mmHg 21%
    12:00 +29°C° 0 mm 2 mps 659 mmHg 20%
    13:00 +30°C° 0 mm 2 mps 658 mmHg 20%
    14:00 +31°C° 0 mm 2 mps 658 mmHg 19%
    15:00 +31°C° 0 mm 2 mps 658 mmHg 19%
    16:00 +31°C° 0 mm 2 mps 658 mmHg 19%
    17:00 +31°C° 0 mm 2 mps 657 mmHg 19%
    18:00 +29°C° 0 mm 2 mps 657 mmHg 24%
    19:00 +27°C° 0 mm 1 mps 657 mmHg 29%
    20:00 +23°C° 0 mm 0 mps 657 mmHg 35%
    21:00 +24°C° 0 mm 1 mps 657 mmHg 33%
    22:00 +24°C° 0 mm 2 mps 657 mmHg 32%
    23:00 +22°C° 0 mm 3 mps 657 mmHg 31%

    26 May, Sunday

    Time Temperature Precipitation Wind Pressure Humidity
    00:00 +22°C° 0 mm 3 mps 657 mmHg 31%
    01:00 +21°C° 0 mm 3 mps 657 mmHg 32%
    02:00 +20°C° 0 mm 3 mps 656 mmHg 33%
    03:00 +20°C° 0 mm 3 mps 656 mmHg 33%
    04:00 +20°C° 0 mm 3 mps 656 mmHg 34%
    05:00 +19°C° 0 mm 3 mps 656 mmHg 34%
    06:00 +21°C° 0 mm 3 mps 657 mmHg 31%
    07:00 +24°C° 0 mm 2 mps 657 mmHg 28%
    08:00 +26°C° 0 mm 2 mps 658 mmHg 25%
    09:00 +27°C° 0 mm 1 mps 658 mmHg 24%
    10:00 +28°C° 0 mm 1 mps 658 mmHg 22%
    11:00 +29°C° 0 mm 1 mps 659 mmHg 21%
    12:00 +29°C° 0 mm 1 mps 659 mmHg 21%
    13:00 +29°C° 0 mm 1 mps 658 mmHg 20%
    14:00 +30°C° 0 mm 1 mps 658 mmHg 20%
    15:00 +29°C° 0.1 mm 2 mps 658 mmHg 22%
    16:00 +29°C° 0.1 mm 3 mps 658 mmHg 24%
    17:00 +28°C° 0.1 mm 3 mps 658 mmHg 26%
    18:00 +27°C° 0 mm 3 mps 658 mmHg 30%
    19:00 +25°C° 0 mm 3 mps 658 mmHg 34%
    20:00 +24°C° 0 mm 3 mps 658 mmHg 37%
    21:00 +22°C° 0 mm 3 mps 659 mmHg 36%
    22:00 +21°C° 0 mm 4 mps 659 mmHg 34%
    23:00 +21°C° 0 mm 4 mps 659 mmHg 32%

    27 May, Monday

    Time Temperature Precipitation Wind Pressure Humidity
    00:00 +20°C° 0 mm 4 mps 658 mmHg 31%
    01:00 +19°C° 0 mm 4 mps 658 mmHg 29%
    02:00 +19°C° 0 mm 4 mps 657 mmHg 28%
    03:00 +18°C° 0 mm 4 mps 657 mmHg 26%
    04:00 +18°C° 0 mm 4 mps 657 mmHg 24%
    05:00 +18°C° 0 mm 4 mps 657 mmHg 23%
    06:00 +20°C° 0 mm 3 mps 658 mmHg 20%
    07:00 +22°C° 0 mm 3 mps 658 mmHg 18%
    08:00 +25°C° 0 mm 2 mps 659 mmHg 16%
    09:00 +26°C° 0 mm 2 mps 659 mmHg 15%
    10:00 +28°C° 0 mm 1 mps 659 mmHg 13%
    11:00 +29°C° 0 mm 1 mps 659 mmHg 12%
    12:00 +30°C° 0 mm 1 mps 659 mmHg 12%
    13:00 +30°C° 0 mm 2 mps 659 mmHg 12%
    14:00 +31°C° 0 mm 2 mps 659 mmHg 12%
    15:00 +31°C° 0 mm 2 mps 659 mmHg 12%
    16:00 +31°C° 0 mm 2 mps 658 mmHg 12%
    17:00 +31°C° 0 mm 2 mps 658 mmHg 12%
    18:00 +29°C° 0 mm 1 mps 658 mmHg 16%
    19:00 +27°C° 0 mm 1 mps 658 mmHg 21%
    20:00 +25°C° 0 mm 1 mps 658 mmHg 25%
    21:00 +24°C° 0 mm 2 mps 658 mmHg 24%
    22:00 +24°C° 0 mm 3 mps 658 mmHg 22%
    23:00 +22°C° 0 mm 4 mps 659 mmHg 21%

    28 May, Tuesday

    Time Temperature Precipitation Wind Pressure Humidity
    00:00 +21°C° 0 mm 4 mps 658 mmHg 21%
    01:00 +21°C° 0 mm 4 mps 658 mmHg 22%
    02:00 +20°C° 0 mm 4 mps 657 mmHg 22%
    03:00 +20°C° 0 mm 4 mps 657 mmHg 22%
    04:00 +19°C° 0 mm 4 mps 657 mmHg 21%
    05:00 +19°C° 0 mm 4 mps 657 mmHg 21%
    06:00 +21°C° 0 mm 3 mps 658 mmHg 19%
    07:00 +24°C° 0 mm 3 mps 658 mmHg 17%
    08:00 +27°C° 0 mm 2 mps 659 mmHg 15%
    09:00 +28°C° 0 mm 2 mps 659 mmHg 13%
    10:00 +29°C° 0 mm 1 mps 659 mmHg 12%
    11:00 +30°C° 0 mm 1 mps 659 mmHg 11%
    12:00 +31°C° 0 mm 1 mps 659 mmHg 11%
    13:00 +32°C° 0 mm 2 mps 659 mmHg 11%
    14:00 +32°C° 0 mm 2 mps 659 mmHg 11%
    15:00 +32°C° 0 mm 2 mps 658 mmHg 11%
    16:00 +32°C° 0 mm 2 mps 658 mmHg 11%
    17:00 +32°C° 0 mm 2 mps 658 mmHg 11%
    18:00 +30°C° 0 mm 2 mps 658 mmHg 14%
    19:00 +28°C° 0 mm 1 mps 658 mmHg 18%
    20:00 +26°C° 0 mm 1 mps 658 mmHg 21%
    21:00 +25°C° 0 mm 2 mps 658 mmHg 20%
    22:00 +24°C° 0 mm 3 mps 658 mmHg 19%
    23:00 +23°C° 0 mm 4 mps 658 mmHg 18%
    Show more